Location: Unspecified
(0.0000°N, 0.0000°E)
Time: 11:18:58
(UTC+00:00)

A-11 Canister half - Pass Details

Date: 28 November 2019
Orbit: 1515 x 1685 km, 47.2° (Epoch: 08 December)

Event Time Altitude Azimuth Distance (km) Brightness Sun altitude
Rises 01:32:47 0° 300° (WNW) 4,873 - -56.7°
Reaches altitude 10° 01:36:20 10° 292° (WNW) 3,866 - -56.0°
Maximum altitude 01:44:57 35° 230° (SW) 2,376 - -54.4°
Exits shadow 01:50:58 18° 177° (S) 3,149 10.8 -53.2°
Drops below altitude 10° 01:53:23 10° 167° (SSE) 3,752 11.3 -52.7°
Sets 01:56:49 0° 158° (SSE) 4,715 12.0 -52.0°
